Weather History for Spencer, IA

Change the Weather History Date:

Monday, February 4, 2013

  Actual Average Record
Temperature  
Mean Temperature 17 °F -  
Max Temperature 24 °F 22 °F 62 °F (2005)
Min Temperature 10 °F 4 °F -20 °F (1979)
Degree Days  
Heating Degree Days 48    
Moisture  
Dew Point 11 °F    
Average Humidity 76    
Maximum Humidity 86    
Minimum Humidity 62    
Precipitation  
Precipitation 0.00 in - - ()
Sea Level Pressure  
Sea Level Pressure 29.96 in    
Wind  
Wind Speed 14 mph (NNW)    
Max Wind Speed 21 mph    
Max Gust Speed -    
Visibility 9 miles    
Events Snow    
Averages and records for this station are not official NWS values.
T = Trace of Precipitation, MM = Missing Value Source: NWS Daily Summary

Daily Weather History Graph

Daily Weather History Graph

Search for Another Location

Airport:

Trip Planner

Search our weather history database for the weather conditions in past years. The results will help you decide how hot, cold, wet, or windy it might be!

Date:

Astronomy

Feb. 04, 2013 Rise Set
Actual Time 7:32 AM CST 5:37 PM CST
Civil Twilight 7:02 AM CST 6:07 PM CST
Nautical Twilight 6:28 AM CST 6:41 PM CST
Astronomical Twilight 5:55 AM CST 7:14 PM CST
Moon 2:11 AM CST (2/4) 11:59 AM CST (2/4)
Length of Visible Light 11h 04m
Length of Day
10h 05m
Last Quarter, 37% of the Moon is Illuminated
Feb 4
Last Quarter
Feb 10
New
Feb 17
First Quarter
Feb 25
Full
Mar 4
Last Quarter

Hourly Weather History & Observations

Time (CST) Temp. Windchill Dew Point Humidity Pressure Visibility Wind Dir Wind Speed Gust Speed Precip Events Conditions
12:02 AM 19.4 °F 4.5 °F 15.8 °F 86% 29.80 in 10.0 mi NNE 17.3 mph - N/A   Mostly Cloudy
12:38 AM 17.6 °F 1.3 °F 14.0 °F 86% 29.82 in 10.0 mi NNE 19.6 mph - N/A   Overcast
12:49 AM 17.6 °F 1.7 °F 14.0 °F 86% 29.83 in 10.0 mi NNE 18.4 mph - N/A   Overcast
12:53 AM 18.0 °F 1.7 °F 14.0 °F 84% 29.89 in 10.0 mi NNE 19.6 mph - N/A   Overcast
1:32 AM 17.6 °F 0.9 °F 12.2 °F 79% 29.83 in 9.0 mi NNE 20.7 mph - N/A   Overcast
1:53 AM 17.1 °F 0.1 °F 12.9 °F 84% 29.90 in 10.0 mi NNE 20.7 mph - N/A   Overcast
2:53 AM 16.0 °F 0.1 °F 12.0 °F 84% 29.92 in 10.0 mi NNE 17.3 mph - N/A   Overcast
4:53 AM 15.1 °F 0.5 °F 10.0 °F 80% 29.97 in 10.0 mi North 13.8 mph - N/A   Overcast
5:34 AM 14.0 °F -3.9 °F 8.6 °F 79% 29.93 in 10.0 mi North 20.7 mph - N/A   Overcast
5:53 AM 14.0 °F -2.0 °F 9.0 °F 80% 29.99 in 7.0 mi North 16.1 mph - 0.00 in Snow Light Snow
6:53 AM 12.9 °F -1.6 °F 8.1 °F 81% 30.03 in 10.0 mi North 12.7 mph - 0.00 in   Overcast
7:05 AM 12.2 °F -2.5 °F 6.8 °F 79% 29.97 in 8.0 mi North 12.7 mph - N/A   Overcast
7:53 AM 10.0 °F -0.9 °F 5.0 °F 80% 30.05 in 8.0 mi North 6.9 mph - N/A   Clear
8:27 AM 10.4 °F -3.3 °F 5.0 °F 79% 29.99 in 6.0 mi North 10.4 mph - N/A   Haze
8:43 AM 10.4 °F -3.3 °F 5.0 °F 79% 29.99 in 6.0 mi North 10.4 mph - N/A   Haze
8:53 AM 12.0 °F -2.0 °F 6.1 °F 77% 30.06 in 8.0 mi North 11.5 mph - N/A   Scattered Clouds
9:01 AM 12.2 °F -2.5 °F 6.8 °F 79% 30.00 in 8.0 mi NNE 12.7 mph - N/A   Mostly Cloudy
9:10 AM 12.2 °F -1.0 °F 6.8 °F 79% 30.00 in 8.0 mi North 10.4 mph - N/A   Scattered Clouds
9:53 AM 14.0 °F 2.9 °F 6.1 °F 71% 30.09 in 10.0 mi North 8.1 mph - N/A   Clear
10:53 AM 17.1 °F 10.0 °F 7.0 °F 65% 30.08 in 10.0 mi North 4.6 mph - N/A   Clear
11:53 AM 19.0 °F 11.1 °F 8.1 °F 62% 30.06 in 10.0 mi NE 5.8 mph - N/A   Clear
12:53 PM 21.0 °F 13.4 °F 10.0 °F 63% 30.04 in 10.0 mi North 5.8 mph - N/A   Clear
1:53 PM 21.9 °F 17.2 °F 10.9 °F 63% 30.04 in 10.0 mi NNW 3.5 mph - N/A   Clear
2:53 PM 21.9 °F 17.2 °F 12.0 °F 66% 30.01 in 10.0 mi WSW 3.5 mph - N/A   Partly Cloudy
3:10 PM 21.2 °F 14.9 °F 12.2 °F 68% 29.95 in 10.0 mi West 4.6 mph - N/A   Mostly Cloudy
3:49 PM 23.0 °F 15.8 °F 12.2 °F 63% 29.94 in 10.0 mi West 5.8 mph - N/A   Mostly Cloudy
3:53 PM 23.0 °F 17.0 °F 12.9 °F 65% 30.01 in 10.0 mi WNW 4.6 mph - N/A   Mostly Cloudy
4:53 PM 23.0 °F 15.8 °F 14.0 °F 68% 29.98 in 10.0 mi SW 5.8 mph - N/A   Mostly Cloudy
5:53 PM 21.0 °F 13.4 °F 14.0 °F 74% 29.97 in 10.0 mi SSW 5.8 mph - N/A   Mostly Cloudy
6:53 PM 21.0 °F 13.4 °F 15.1 °F 78% 29.94 in 10.0 mi SSW 5.8 mph - N/A   Mostly Cloudy
7:53 PM 21.0 °F 11.4 °F 15.1 °F 78% 29.93 in 10.0 mi SSW 8.1 mph - N/A   Mostly Cloudy
8:53 PM 23.0 °F 12.4 °F 16.0 °F 74% 29.92 in 10.0 mi SSW 10.4 mph - N/A   Overcast
9:53 PM 23.0 °F 13.9 °F 16.0 °F 74% 29.90 in 10.0 mi SSW 8.1 mph - N/A   Mostly Cloudy
10:53 PM 24.1 °F 13.7 °F 17.1 °F 75% 29.88 in 10.0 mi SSW 10.4 mph - N/A   Overcast
11:53 PM 24.1 °F 13.1 °F 18.0 °F 77% 29.85 in 10.0 mi SSW 11.5 mph - N/A   Overcast